Portada
METAR-TAF:

METAR-TAF

Aeroports :

Kaiser-Lake Ozark, Missouri, Estats Units d'Amèrica

latitud: 38-06N, longitud: 092-33W, altitud: 265 m

Observació

L'informe es va fer fa 52 minuts, a les 17:56 UTC
Vent 5 kt del Est
Temperatura 13°C
Humitat 94%
Pressió 1020 hPa
Visibilitat: 16.1 km

METAR: KAIZ 211756Z AUTO 09005KT 10SM 13/12 A3013 RMK AO2 SLP203 60001 T01330122 10133 20094 58015 $

Hora: 13:48 (18:48 UTC)


TAF: manca

Observacions i pronòstics meteorològics de més de 4000 aeroports (METAR i TAF).

Les estacions disponibles són els punts grocs i vermells al mapa.

Posi el ratolí al punt desitjat per veure el nom de l'estació.

Feu clic per veure les observacions i els pronòstics meteorològics.

Per canviar el mapa: feu clic els botons verds amb una creu de color negre per apropar; al botó verd amb un guió per allunyar la imatge; o en les fletxes verdes per a mapes adjacents.


METAR-TAF: